| time (UTC) | temp F | wind direction | speed MPH | gust MPH | rain 1hr in | rain 24hr in | rain mn in | humidity % | barometer mb |
| 20260904215727 | 88 | 103 | 10.0 | 15.0 | 0.00 | 0.00 | 0.00 | 70 | 1010.1 |
| 20260904214930 | 89 | 104 | 10.0 | 18.0 | 0.00 | 0.00 | 0.00 | 70 | 1010.1 |
| 20260904214649 | 89 | 90 | 11.0 | 18.0 | 0.00 | 0.00 | 0.00 | 70 | 1009.9 |
| 20260904213915 | 89 | 95 | 11.0 | 18.0 | 0.00 | 0.00 | 0.00 | 70 | 1009.9 |
| 20260904213407 | 90 | 107 | 10.0 | 18.0 | 0.00 | 0.00 | 0.00 | 68 | 1009.9 |
| 20260904213127 | 90 | 141 | 11.0 | 22.0 | 0.00 | 0.00 | 0.00 | 66 | 1010.2 |
| 20260904212349 | 91 | 126 | 11.0 | 22.0 | 0.00 | 0.00 | 0.00 | 62 | 1010.2 |
| 20260904211843 | 92 | 134 | 12.0 | 22.0 | 0.00 | 0.00 | 0.00 | 60 | 1010.2 |
| 20260904211333 | 95 | 101 | 13.0 | 22.0 | 0.00 | 0.00 | 0.00 | 61 | 1010.3 |
| 20260904210819 | 96 | 112 | 10.0 | 20.0 | 0.00 | 0.00 | 0.00 | 61 | 1010.3 |
| 20260904210318 | 96 | 90 | 9.0 | 17.0 | 0.00 | 0.00 | 0.00 | 62 | 1010.3 |
| 20260904205819 | 95 | 102 | 9.0 | 17.0 | 0.00 | 0.00 | 0.00 | 62 | 1010.2 |
| 20260904205321 | 95 | 119 | 10.0 | 17.0 | 0.00 | 0.00 | 0.00 | 62 | 1010.2 |
| 20260904204820 | 96 | 101 | 10.0 | 17.0 | 0.00 | 0.00 | 0.00 | 62 | 1010.2 |
| 20260904204539 | 96 | 134 | 10.0 | 19.0 | 0.00 | 0.00 | 0.00 | 62 | 1010.2 |
| 20260904204049 | 95 | 95 | 11.0 | 19.0 | 0.00 | 0.00 | 0.00 | 62 | 1010.2 |
| 20260904203320 | 96 | 101 | 10.0 | 19.0 | 0.00 | 0.00 | 0.00 | 61 | 1010.2 |
| 20260904202815 | 97 | 77 | 8.0 | 19.0 | 0.00 | 0.00 | 0.00 | 61 | 1010.5 |
| 20260904202316 | 97 | 68 | 8.0 | 16.0 | 0.00 | 0.00 | 0.00 | 53 | 1010.5 |
| 20260904201540 | 94 | 128 | 5.0 | 15.0 | 0.00 | 0.00 | 0.00 | 54 | 1010.6 |
| 20260904200809 | 92 | 153 | 2.0 | 12.0 | 0.00 | 0.00 | 0.00 | 62 | 1010.6 |
| 20260904200310 | 92 | 257 | 3.0 | 6.0 | 0.00 | 0.00 | 0.00 | 64 | 1010.6 |
| 20260904195810 | 92 | 345 | 2.0 | 6.0 | 0.00 | 0.00 | 0.00 | 65 | 1010.7 |
| 20260904195308 | 92 | 299 | 2.0 | 6.0 | 0.00 | 0.00 | 0.00 | 69 | 1010.7 |
| 20260904195029 | 92 | 349 | 2.0 | 5.0 | 0.00 | 0.00 | 0.00 | 69 | 1010.7 |
| 20260904194308 | 91 | 330 | 1.0 | 5.0 | 0.00 | 0.00 | 0.00 | 67 | 1010.7 |
| 20260904193802 | 90 | 207 | 1.0 | 3.0 | 0.00 | 0.00 | 0.00 | 68 | 1010.7 |
| 20260904193519 | 89 | 207 | 1.0 | 3.0 | 0.00 | 0.00 | 0.00 | 69 | 1010.7 |
| 20260904192746 | 89 | 207 | 1.0 | 3.0 | 0.00 | 0.00 | 0.00 | 68 | 1010.8 |
| 20260904192240 | 88 | 207 | 2.0 | 4.0 | 0.00 | 0.00 | 0.00 | 70 | 1010.8 |
| 20260904191730 | 88 | 207 | 3.0 | 10.0 | 0.00 | 0.00 | 0.00 | 73 | 1010.8 |
| 20260904190711 | 87 | 206 | 7.0 | 10.0 | 0.00 | 0.00 | 0.00 | 74 | 1011.0 |
| 20260904190204 | 87 | 183 | 7.0 | 11.0 | 0.00 | 0.00 | 0.00 | 75 | 1011.0 |
| 20260904185704 | 88 | 224 | 6.0 | 12.0 | 0.00 | 0.00 | 0.00 | 74 | 1011.4 |
| 20260904185200 | 88 | 205 | 5.0 | 12.0 | 0.00 | 0.00 | 0.00 | 74 | 1011.4 |
| 20260904184705 | 88 | 220 | 7.0 | 17.0 | 0.00 | 0.00 | 0.00 | 74 | 1011.4 |
| 20260904184159 | 88 | 197 | 7.0 | 17.0 | 0.00 | 0.00 | 0.00 | 74 | 1011.3 |
| 20260904183931 | 89 | 183 | 7.0 | 15.0 | 0.00 | 0.00 | 0.00 | 72 | 1011.3 |
| 20260904183200 | 90 | 137 | 8.0 | 19.0 | 0.00 | 0.00 | 0.00 | 72 | 1011.3 |
| 20260904182705 | 90 | 126 | 9.0 | 19.0 | 0.00 | 0.00 | 0.00 | 69 | 1011.3 |
| 20260904182159 | 90 | 113 | 11.0 | 19.0 | 0.00 | 0.00 | 0.00 | 61 | 1011.3 |
| 20260904181922 | 91 | 103 | 9.0 | 19.0 | 0.00 | 0.00 | 0.00 | 65 | 1011.3 |
| 20260904181200 | 92 | 90 | 4.0 | 11.0 | 0.00 | 0.00 | 0.00 | 70 | 1011.4 |
| 20260904180701 | 92 | 90 | 2.0 | 11.0 | 0.00 | 0.00 | 0.00 | 69 | 1011.4 |
| 20260904180151 | 92 | 245 | 3.0 | 6.0 | 0.00 | 0.00 | 0.00 | 69 | 1011.4 |
| 20260904175659 | 92 | 247 | 4.0 | 6.0 | 0.00 | 0.00 | 0.00 | 69 | 1011.7 |
| 20260904175413 | 92 | 233 | 4.0 | 7.0 | 0.00 | 0.00 | 0.00 | 69 | 1011.7 |
| 20260904174920 | 92 | 221 | 4.0 | 11.0 | 0.00 | 0.00 | 0.00 | 69 | 1011.7 |
| 20260904174417 | 93 | 225 | 4.0 | 11.0 | 0.00 | 0.00 | 0.00 | 67 | 1011.9 |
| 20260904173928 | 94 | 251 | 4.0 | 11.0 | 0.00 | 0.00 | 0.00 | 66 | 1011.9 |
| 20260904173149 | 94 | 253 | 4.0 | 11.0 | 0.00 | 0.00 | 0.00 | 66 | 1011.9 |
| 20260904172649 | 93 | 90 | 4.0 | 10.0 | 0.00 | 0.00 | 0.00 | 67 | 1012.3 |
| 20260904172148 | 93 | 170 | 5.0 | 10.0 | 0.00 | 0.00 | 0.00 | 67 | 1012.3 |
| 20260904171651 | 92 | 170 | 5.0 | 9.0 | 0.00 | 0.00 | 0.00 | 70 | 1012.3 |
| 20260904171146 | 91 | 228 | 5.0 | 9.0 | 0.00 | 0.00 | 0.00 | 70 | 1012.4 |
| 20260904170650 | 91 | 199 | 5.0 | 2.0 | 0.00 | 0.00 | 0.00 | 71 | 1012.4 |
| 20260904170237 | 91 | 182 | 4.0 | 3.0 | 0.00 | 0.00 | 0.00 | 73 | 1012.4 |
| 20260904165902 | 90 | 220 | 4.0 | 9.0 | 0.00 | 0.00 | 0.00 | 73 | 1012.5 |
| 20260904165403 | 89 | 90 | 4.0 | 9.0 | 0.00 | 0.00 | 0.00 | 75 | 1012.5 |
| 20260904165131 | 89 | 167 | 4.0 | 9.0 | 0.00 | 0.00 | 0.00 | 77 | 1012.5 |
| 20260904164637 | 89 | 115 | 5.0 | 8.0 | 0.00 | 0.00 | 0.00 | 78 | 1012.5 |
| 20260904163900 | 88 | 138 | 5.0 | 9.0 | 0.00 | 0.00 | 0.00 | 78 | 1012.5 |
| 20260904163359 | 88 | 126 | 5.0 | 10.0 | 0.00 | 0.00 | 0.00 | 78 | 1012.5 |
| 20260904162857 | 88 | 131 | 5.0 | 10.0 | 0.00 | 0.00 | 0.00 | 78 | 1012.4 |
| 20260904162358 | 89 | 118 | 5.0 | 11.0 | 0.00 | 0.00 | 0.00 | 77 | 1012.4 |
| 20260904161857 | 90 | 133 | 4.0 | 11.0 | 0.00 | 0.00 | 0.00 | 76 | 1012.4 |
| 20260904161619 | 90 | 143 | 5.0 | 11.0 | 0.00 | 0.00 | 0.00 | 75 | 1012.3 |
| 20260904160854 | 90 | 169 | 5.0 | 11.0 | 0.00 | 0.00 | 0.00 | 75 | 1012.3 |
| 20260904160355 | 91 | 149 | 3.0 | 9.0 | 0.00 | 0.00 | 0.00 | 75 | 1012.3 |
| 20260904155854 | 90 | 175 | 4.0 | 9.0 | 0.00 | 0.00 | 0.00 | 75 | 1012.4 |
| 20260904154855 | 89 | 119 | 3.0 | 8.0 | 0.00 | 0.00 | 0.00 | 76 | 1012.4 |
| 20260904154358 | 89 | 203 | 3.0 | 7.0 | 0.00 | 0.00 | 0.00 | 78 | 1012.4 |
| 20260904153853 | 89 | 192 | 4.0 | 7.0 | 0.00 | 0.00 | 0.00 | 79 | 1012.4 |
| 20260904153341 | 88 | 218 | 3.0 | 7.0 | 0.00 | 0.00 | 0.00 | 80 | 1012.4 |
| 20260904152829 | 88 | 233 | 2.0 | 5.0 | 0.00 | 0.00 | 0.00 | 80 | 1012.4 |
| 20260904152319 | 88 | 216 | 2.0 | 5.0 | 0.00 | 0.00 | 0.00 | 81 | 1012.4 |
| 20260904151817 | 88 | 85 | 1.0 | 4.0 | 0.00 | 0.00 | 0.00 | 81 | 1012.4 |
| 20260904151316 | 87 | 85 | 1.0 | 4.0 | 0.00 | 0.00 | 0.00 | 81 | 1012.4 |
| 20260904150816 | 87 | 85 | 2.0 | 4.0 | 0.00 | 0.00 | 0.00 | 82 | 1012.4 |
| 20260904150316 | 86 | 85 | 2.0 | 5.0 | 0.00 | 0.00 | 0.00 | 83 | 1012.4 |
| 20260904150039 | 85 | 85 | 2.0 | 5.0 | 0.00 | 0.00 | 0.00 | 83 | 1012.5 |
| 20260904145315 | 84 | 69 | 3.0 | 5.0 | 0.00 | 0.00 | 0.00 | 84 | 1012.5 |
| 20260904144812 | 83 | 61 | 3.0 | 5.0 | 0.00 | 0.00 | 0.00 | 84 | 1012.5 |
| 20260904144309 | 83 | 81 | 2.0 | 4.0 | 0.00 | 0.00 | 0.00 | 85 | 1012.4 |
| 20260904143809 | 82 | 90 | 2.0 | 4.0 | 0.00 | 0.00 | 0.00 | 86 | 1012.4 |
| 20260904143307 | 81 | 95 | 2.0 | 3.0 | 0.00 | 0.00 | 0.00 | 86 | 1012.4 |
| 20260904143031 | 81 | 95 | 1.0 | 3.0 | 0.00 | 0.00 | 0.00 | 86 | 1012.3 |
| 20260904142251 | 81 | 95 | 2.0 | 4.0 | 0.00 | 0.00 | 0.00 | 87 | 1012.3 |
| 20260904141741 | 80 | 95 | 1.0 | 4.0 | 0.00 | 0.00 | 0.00 | 87 | 1012.3 |
| 20260904141449 | 79 | 128 | 0.0 | 0.0 | 0.00 | 0.00 | 0.00 | 88 | 1011.9 |
| 20260904140726 | 79 | 128 | 0.0 | 0.0 | 0.00 | 0.00 | 0.00 | 87 | 1011.9 |
| 20260904140224 | 79 | 128 | 0.0 | 0.0 | 0.00 | 0.00 | 0.00 | 88 | 1011.9 |
| 20260904135220 | 79 | 128 | 0.0 | 0.0 | 0.00 | 0.00 | 0.00 | 88 | 1011.9 |
| 20260904134941 | 79 | 131 | 0.0 | 0.0 | 0.00 | 0.00 | 0.00 | 88 | 1011.9 |
| 20260904134224 | 78 | 132 | 0.0 | 0.0 | 0.00 | 0.00 | 0.00 | 87 | 1011.8 |
| 20260904133721 | 78 | 132 | 0.0 | 0.0 | 0.00 | 0.00 | 0.00 | 87 | 1011.8 |
| 20260904133222 | 78 | 136 | 0.0 | 0.0 | 0.00 | 0.00 | 0.00 | 88 | 1011.8 |
| 20260904132721 | 78 | 151 | 0.0 | 0.0 | 0.00 | 0.00 | 0.00 | 87 | 1011.7 |
| 20260904132215 | 78 | 155 | 0.0 | 0.0 | 0.00 | 0.00 | 0.00 | 87 | 1011.7 |
| 20260904131715 | 78 | 156 | 0.0 | 0.0 | 0.00 | 0.00 | 0.00 | 87 | 1011.7 |
| 20260904131216 | 78 | 156 | 0.0 | 0.0 | 0.00 | 0.00 | 0.00 | 88 | 1011.4 |
| 20260904130716 | 78 | 155 | 0.0 | 0.0 | 0.00 | 0.00 | 0.00 | 88 | 1011.4 |
| 20260904130205 | 78 | 156 | 0.0 | 0.0 | 0.00 | 0.00 | 0.00 | 88 | 1011.4 |
| 20260904125658 | 78 | 156 | 0.0 | 0.0 | 0.00 | 0.00 | 0.00 | 88 | 1011.2 |
| 20260904125149 | 78 | 156 | 0.0 | 0.0 | 0.00 | 0.00 | 0.00 | 88 | 1011.2 |
| 20260904124910 | 78 | 156 | 0.0 | 0.0 | 0.00 | 0.00 | 0.00 | 88 | 1011.2 |
| 20260904124133 | 78 | 156 | 0.0 | 0.0 | 0.00 | 0.00 | 0.00 | 88 | 1011.2 |
| 20260904123622 | 78 | 156 | 0.0 | 0.0 | 0.00 | 0.00 | 0.00 | 88 | 1011.2 |
| 20260904123113 | 78 | 156 | 0.0 | 0.0 | 0.00 | 0.00 | 0.00 | 88 | 1011.2 |
| 20260904122622 | 78 | 156 | 0.0 | 0.0 | 0.00 | 0.00 | 0.00 | 88 | 1011.0 |
| 20260904122056 | 78 | 156 | 0.0 | 0.0 | 0.00 | 0.00 | 0.00 | 88 | 1011.0 |
| 20260904121544 | 78 | 156 | 0.0 | 0.0 | 0.00 | 0.00 | 0.00 | 88 | 1011.0 |
| 20260904121038 | 78 | 156 | 0.0 | 0.0 | 0.00 | 0.00 | 0.00 | 88 | 1010.9 |
| 20260904120536 | 78 | 156 | 0.0 | 0.0 | 0.00 | 0.00 | 0.00 | 88 | 1010.9 |
| 20260904120037 | 78 | 156 | 0.0 | 0.0 | 0.00 | 0.00 | 0.00 | 88 | 1010.9 |
| 20260904115533 | 78 | 156 | 0.0 | 0.0 | 0.00 | 0.00 | 0.00 | 88 | 1010.8 |
| 20260904115034 | 79 | 156 | 0.0 | 0.0 | 0.00 | 0.00 | 0.00 | 88 | 1010.8 |
| 20260904114533 | 79 | 156 | 0.0 | 0.0 | 0.00 | 0.00 | 0.00 | 88 | 1010.8 |
| 20260904114034 | 79 | 156 | 0.0 | 0.0 | 0.00 | 0.00 | 0.00 | 88 | 1010.8 |
| 20260904113534 | 79 | 157 | 0.0 | 4.0 | 0.00 | 0.00 | 0.00 | 88 | 1010.8 |
| 20260904113033 | 79 | 159 | 0.0 | 4.0 | 0.00 | 0.00 | 0.00 | 87 | 1010.8 |
| 20260904112005 | 79 | 159 | 3.0 | 4.0 | 0.00 | 0.00 | 0.00 | 87 | 1010.8 |
| 20260904111506 | 80 | 159 | 2.0 | 4.0 | 0.00 | 0.00 | 0.00 | 87 | 1010.8 |
| 20260904111005 | 80 | 157 | 1.0 | 4.0 | 0.00 | 0.00 | 0.00 | 88 | 1010.8 |
| 20260904110506 | 80 | 157 | 1.0 | 4.0 | 0.00 | 0.00 | 0.00 | 88 | 1010.8 |
| 20260904110006 | 80 | 157 | 2.0 | 4.0 | 0.00 | 0.00 | 0.00 | 88 | 1010.8 |
| 20260904105722 | 80 | 157 | 2.0 | 4.0 | 0.00 | 0.00 | 0.00 | 88 | 1010.7 |
| 20260904105004 | 80 | 155 | 2.0 | 5.0 | 0.00 | 0.00 | 0.00 | 88 | 1010.7 |
| 20260904104504 | 80 | 153 | 2.0 | 5.0 | 0.00 | 0.00 | 0.00 | 89 | 1010.6 |
| 20260904104006 | 80 | 152 | 2.0 | 5.0 | 0.00 | 0.00 | 0.00 | 89 | 1010.6 |
| 20260904103505 | 80 | 152 | 3.0 | 8.0 | 0.00 | 0.00 | 0.00 | 89 | 1010.6 |
| 20260904103004 | 81 | 159 | 4.0 | 8.0 | 0.00 | 0.00 | 0.00 | 89 | 1010.5 |
| 20260904102454 | 81 | 167 | 4.0 | 8.0 | 0.00 | 0.00 | 0.00 | 89 | 1010.5 |
| 20260904102203 | 81 | 172 | 5.0 | 9.0 | 0.00 | 0.00 | 0.00 | 89 | 1010.5 |
| 20260904101434 | 80 | 155 | 3.0 | 9.0 | 0.00 | 0.00 | 0.00 | 89 | 1010.3 |
| 20260904101150 | 80 | 130 | 1.0 | 4.0 | 0.00 | 0.00 | 0.00 | 88 | 1010.3 |
| 20260904100418 | 80 | 132 | 1.0 | 3.0 | 0.00 | 0.00 | 0.00 | 88 | 1010.3 |
| 20260904095909 | 80 | 132 | 2.0 | 3.0 | 0.00 | 0.00 | 0.00 | 88 | 1010.3 |
| 20260904095406 | 80 | 132 | 2.0 | 3.0 | 0.00 | 0.00 | 0.00 | 88 | 1010.3 |
| 20260904094858 | 80 | 132 | 2.0 | 3.0 | 0.00 | 0.00 | 0.00 | 88 | 1010.3 |
| 20260904094359 | 80 | 132 | 2.0 | 4.0 | 0.00 | 0.00 | 0.00 | 88 | 1010.3 |
| 20260904093900 | 80 | 132 | 2.0 | 4.0 | 0.00 | 0.00 | 0.00 | 88 | 1010.3 |
| 20260904092859 | 80 | 130 | 3.0 | 4.0 | 0.00 | 0.00 | 0.00 | 88 | 1010.3 |
| 20260904092617 | 80 | 130 | 3.0 | 4.0 | 0.00 | 0.00 | 0.00 | 88 | 1010.3 |
| 20260904091859 | 80 | 129 | 2.0 | 4.0 | 0.00 | 0.00 | 0.00 | 89 | 1010.3 |
| 20260904091356 | 80 | 129 | 2.0 | 4.0 | 0.00 | 0.00 | 0.00 | 88 | 1010.3 |
| 20260904090853 | 80 | 129 | 1.0 | 3.0 | 0.00 | 0.00 | 0.00 | 89 | 1010.3 |
| 20260904090616 | 80 | 129 | 0.0 | 2.0 | 0.00 | 0.00 | 0.00 | 88 | 1010.3 |
| 20260904085351 | 80 | 129 | 1.0 | 5.0 | 0.00 | 0.00 | 0.00 | 88 | 1010.2 |
| 20260904084850 | 80 | 129 | 1.0 | 5.0 | 0.00 | 0.00 | 0.00 | 88 | 1010.2 |
| 20260904084343 | 81 | 129 | 2.0 | 5.0 | 0.00 | 0.00 | 0.00 | 88 | 1009.9 |
| 20260904083838 | 81 | 128 | 3.0 | 5.0 | 0.00 | 0.00 | 0.00 | 88 | 1009.9 |
| 20260904083323 | 81 | 128 | 3.0 | 4.0 | 0.00 | 0.00 | 0.00 | 88 | 1009.9 |
| 20260904082817 | 81 | 132 | 2.0 | 4.0 | 0.00 | 0.00 | 0.00 | 88 | 1009.9 |
| 20260904082308 | 81 | 143 | 2.0 | 4.0 | 0.00 | 0.00 | 0.00 | 88 | 1009.9 |
| 20260904081801 | 81 | 142 | 1.0 | 4.0 | 0.00 | 0.00 | 0.00 | 88 | 1009.9 |
| 20260904081521 | 81 | 142 | 1.0 | 3.0 | 0.00 | 0.00 | 0.00 | 88 | 1010.2 |
| 20260904081012 | 81 | 142 | 1.0 | 3.0 | 0.00 | 0.00 | 0.00 | 88 | 1010.2 |
| 20260904080240 | 81 | 142 | 1.0 | 2.0 | 0.00 | 0.00 | 0.00 | 88 | 1010.2 |
| 20260904075739 | 81 | 142 | 1.0 | 4.0 | 0.00 | 0.00 | 0.00 | 88 | 1010.3 |
| 20260904075240 | 81 | 142 | 2.0 | 4.0 | 0.00 | 0.00 | 0.00 | 88 | 1010.3 |
| 20260904074737 | 81 | 143 | 1.0 | 4.0 | 0.00 | 0.00 | 0.00 | 88 | 1010.3 |
| 20260904074240 | 81 | 143 | 2.0 | 3.0 | 0.00 | 0.00 | 0.00 | 88 | 1010.3 |
| 20260904073739 | 81 | 143 | 2.0 | 3.0 | 0.00 | 0.00 | 0.00 | 88 | 1010.3 |
| 20260904073238 | 81 | 143 | 2.0 | 3.0 | 0.00 | 0.00 | 0.00 | 88 | 1010.3 |
| 20260904072739 | 81 | 143 | 2.0 | 3.0 | 0.00 | 0.00 | 0.00 | 88 | 1010.3 |
| 20260904072239 | 81 | 143 | 2.0 | 3.0 | 0.00 | 0.00 | 0.00 | 88 | 1010.3 |
| 20260904071731 | 81 | 143 | 2.0 | 5.0 | 0.00 | 0.00 | 0.00 | 87 | 1010.3 |
| 20260904071224 | 82 | 143 | 2.0 | 5.0 | 0.00 | 0.00 | 0.00 | 87 | 1010.3 |
| 20260904070940 | 82 | 143 | 2.0 | 5.0 | 0.00 | 0.00 | 0.00 | 87 | 1010.3 |
| 20260904070224 | 82 | 141 | 2.0 | 6.0 | 0.00 | 0.00 | 0.00 | 87 | 1010.3 |
| 20260904065725 | 82 | 141 | 3.0 | 6.0 | 0.00 | 0.00 | 0.00 | 87 | 1010.4 |
| 20260904065224 | 82 | 139 | 3.0 | 5.0 | 0.00 | 0.00 | 0.00 | 87 | 1010.4 |
| 20260904064725 | 82 | 105 | 3.0 | 5.0 | 0.00 | 0.00 | 0.00 | 87 | 1010.4 |
| 20260904064225 | 82 | 135 | 2.0 | 5.0 | 0.00 | 0.00 | 0.00 | 87 | 1010.3 |
| 20260904063721 | 82 | 126 | 3.0 | 6.0 | 0.00 | 0.00 | 0.00 | 87 | 1010.3 |
| 20260904063214 | 82 | 136 | 3.0 | 8.0 | 0.00 | 0.00 | 0.00 | 87 | 1010.3 |
| 20260904062709 | 82 | 108 | 3.0 | 8.0 | 0.00 | 0.00 | 0.00 | 87 | 1010.3 |
| 20260904062201 | 82 | 128 | 3.0 | 6.0 | 0.00 | 0.00 | 0.00 | 87 | 1010.3 |
| 20260904061159 | 82 | 131 | 3.0 | 7.0 | 0.00 | 0.00 | 0.00 | 87 | 1010.4 |
| 20260904060657 | 82 | 134 | 3.0 | 7.0 | 0.00 | 0.00 | 0.00 | 87 | 1010.4 |
| 20260904060159 | 82 | 137 | 3.0 | 6.0 | 0.00 | 0.00 | 0.00 | 87 | 1010.4 |
| 20260904055659 | 82 | 131 | 3.0 | 5.0 | 0.00 | 0.00 | 0.00 | 87 | 1010.6 |
| 20260904055158 | 82 | 139 | 3.0 | 5.0 | 0.00 | 0.00 | 0.00 | 88 | 1010.6 |
| 20260904054658 | 81 | 141 | 3.0 | 5.0 | 0.00 | 0.00 | 0.00 | 88 | 1010.6 |
| 20260904054157 | 81 | 149 | 3.0 | 5.0 | 0.00 | 0.00 | 0.00 | 88 | 1010.7 |
| 20260904053657 | 81 | 153 | 3.0 | 5.0 | 0.00 | 0.00 | 0.00 | 88 | 1010.7 |
| 20260904053156 | 81 | 147 | 3.0 | 5.0 | 0.00 | 0.00 | 0.00 | 88 | 1010.7 |
| 20260904052654 | 81 | 151 | 4.0 | 7.0 | 0.00 | 0.00 | 0.00 | 88 | 1010.5 |
| 20260904052144 | 81 | 153 | 5.0 | 8.0 | 0.00 | 0.00 | 0.00 | 88 | 1010.5 |
| 20260904051636 | 81 | 90 | 4.0 | 8.0 | 0.00 | 0.00 | 0.00 | 88 | 1010.5 |
| 20260904051136 | 81 | 90 | 4.0 | 7.0 | 0.00 | 0.00 | 0.00 | 88 | 1010.6 |
| 20260904050635 | 81 | 139 | 3.0 | 7.0 | 0.00 | 0.00 | 0.00 | 87 | 1010.6 |
| 20260904050136 | 81 | 132 | 4.0 | 7.0 | 0.00 | 0.00 | 0.00 | 87 | 1010.6 |
| 20260904045633 | 81 | 143 | 4.0 | 7.0 | 0.00 | 0.00 | 0.00 | 87 | 1010.6 |
| 20260904045133 | 81 | 140 | 4.0 | 7.0 | 0.00 | 0.00 | 0.00 | 87 | 1010.6 |
| 20260904044634 | 81 | 136 | 3.0 | 6.0 | 0.00 | 0.00 | 0.00 | 87 | 1010.6 |
| 20260904044135 | 82 | 138 | 3.0 | 6.0 | 0.00 | 0.00 | 0.00 | 86 | 1010.4 |
| 20260904043632 | 82 | 122 | 4.0 | 6.0 | 0.00 | 0.00 | 0.00 | 86 | 1010.4 |
| 20260904043120 | 82 | 118 | 4.0 | 5.0 | 0.00 | 0.00 | 0.00 | 86 | 1010.4 |
| 20260904042610 | 82 | 115 | 4.0 | 5.0 | 0.00 | 0.00 | 0.00 | 86 | 1010.8 |
| 20260904042110 | 82 | 116 | 4.0 | 9.0 | 0.00 | 0.00 | 0.00 | 86 | 1010.8 |
| 20260904041104 | 83 | 120 | 5.0 | 9.0 | 0.00 | 0.00 | 0.00 | 86 | 1010.8 |
| 20260904040605 | 83 | 115 | 4.0 | 9.0 | 0.00 | 0.00 | 0.00 | 86 | 1010.8 |
| 20260904040333 | 83 | 129 | 4.0 | 8.0 | 0.00 | 0.00 | 0.00 | 86 | 1010.8 |
| 20260904035604 | 83 | 123 | 4.0 | 8.0 | 0.00 | 0.00 | 0.00 | 86 | 1010.7 |
| 20260904035102 | 83 | 139 | 4.0 | 7.0 | 0.00 | 0.00 | 0.00 | 85 | 1010.7 |
| 20260904034603 | 83 | 128 | 5.0 | 8.0 | 0.00 | 0.00 | 0.00 | 85 | 1010.7 |
| 20260904034327 | 83 | 119 | 4.0 | 8.0 | 0.00 | 0.00 | 0.00 | 86 | 1010.5 |
| 20260904033833 | 83 | 139 | 4.0 | 9.0 | 0.00 | 0.00 | 0.00 | 85 | 1010.5 |
| 20260904033326 | 83 | 141 | 5.0 | 9.0 | 0.00 | 0.00 | 0.00 | 85 | 1010.5 |
| 20260904032604 | 83 | 139 | 5.0 | 9.0 | 0.00 | 0.00 | 0.00 | 85 | 1010.4 |
| 20260904032057 | 83 | 114 | 5.0 | 8.0 | 0.00 | 0.00 | 0.00 | 86 | 1010.4 |
| 20260904031551 | 83 | 128 | 5.0 | 8.0 | 0.00 | 0.00 | 0.00 | 85 | 1010.4 |
| 20260904031041 | 83 | 140 | 4.0 | 8.0 | 0.00 | 0.00 | 0.00 | 85 | 1010.3 |
| 20260904030817 | 83 | 136 | 4.0 | 8.0 | 0.00 | 0.00 | 0.00 | 85 | 1010.3 |
| 20260904030040 | 83 | 130 | 4.0 | 8.0 | 0.00 | 0.00 | 0.00 | 85 | 1010.3 |
| 20260904025538 | 83 | 125 | 4.0 | 8.0 | 0.00 | 0.00 | 0.00 | 84 | 1010.3 |
| 20260904025039 | 83 | 139 | 3.0 | 7.0 | 0.00 | 0.00 | 0.00 | 84 | 1010.3 |
| 20260904024759 | 83 | 145 | 3.0 | 7.0 | 0.00 | 0.00 | 0.00 | 83 | 1010.3 |
| 20260904024040 | 84 | 136 | 3.0 | 7.0 | 0.00 | 0.00 | 0.00 | 83 | 1010.2 |
| 20260904023539 | 84 | 123 | 4.0 | 7.0 | 0.00 | 0.00 | 0.00 | 83 | 1010.2 |
| 20260904023042 | 84 | 143 | 4.0 | 8.0 | 0.00 | 0.00 | 0.00 | 83 | 1010.2 |
| 20260904022538 | 84 | 120 | 5.0 | 8.0 | 0.00 | 0.00 | 0.00 | 82 | 1009.9 |
| 20260904022039 | 84 | 132 | 5.0 | 11.0 | 0.00 | 0.00 | 0.00 | 82 | 1009.9 |
| 20260904021539 | 84 | 149 | 6.0 | 11.0 | 0.00 | 0.00 | 0.00 | 82 | 1009.9 |
| 20260904021036 | 84 | 128 | 6.0 | 11.0 | 0.00 | 0.00 | 0.00 | 82 | 1009.8 |
| 20260904020530 | 84 | 143 | 6.0 | 12.0 | 0.00 | 0.00 | 0.00 | 82 | 1009.8 |
| 20260904020023 | 85 | 143 | 7.0 | 12.0 | 0.00 | 0.00 | 0.00 | 82 | 1009.8 |
| 20260904015004 | 85 | 132 | 6.0 | 13.0 | 0.00 | 0.00 | 0.00 | 81 | 1009.8 |
| 20260904014720 | 85 | 105 | 6.0 | 13.0 | 0.00 | 0.00 | 0.00 | 81 | 1009.8 |
| 20260904014211 | 85 | 120 | 7.0 | 13.0 | 0.00 | 0.00 | 0.00 | 81 | 1009.8 |
| 20260904013701 | 85 | 114 | 7.0 | 11.0 | 0.00 | 0.00 | 0.00 | 81 | 1009.8 |
| 20260904012938 | 85 | 116 | 6.0 | 10.0 | 0.00 | 0.00 | 0.00 | 80 | 1009.8 |
| 20260904012436 | 85 | 139 | 6.0 | 14.0 | 0.00 | 0.00 | 0.00 | 80 | 1009.8 |
| 20260904011932 | 85 | 133 | 7.0 | 14.0 | 0.00 | 0.00 | 0.00 | 80 | 1009.8 |
| 20260904011432 | 85 | 158 | 7.0 | 15.0 | 0.00 | 0.00 | 0.00 | 80 | 1009.7 |
| 20260904010934 | 86 | 130 | 8.0 | 15.0 | 0.00 | 0.00 | 0.00 | 79 | 1009.7 |
| 20260904010433 | 86 | 130 | 8.0 | 13.0 | 0.00 | 0.00 | 0.00 | 79 | 1009.7 |
| 20260904005933 | 86 | 111 | 7.0 | 15.0 | 0.00 | 0.00 | 0.00 | 79 | 1009.8 |
| 20260904005434 | 86 | 133 | 8.0 | 17.0 | 0.00 | 0.00 | 0.00 | 78 | 1009.8 |
| 20260904004929 | 86 | 124 | 9.0 | 17.0 | 0.00 | 0.00 | 0.00 | 78 | 1009.8 |
| 20260904004432 | 87 | 132 | 8.0 | 15.0 | 0.00 | 0.00 | 0.00 | 77 | 1009.8 |
| 20260904003920 | 87 | 134 | 8.0 | 16.0 | 0.00 | 0.00 | 0.00 | 77 | 1009.8 |
| 20260904003412 | 87 | 155 | 8.0 | 16.0 | 0.00 | 0.00 | 0.00 | 76 | 1009.8 |
| 20260904002912 | 87 | 128 | 9.0 | 16.0 | 0.00 | 0.00 | 0.00 | 76 | 1009.8 |
| 20260904002414 | 87 | 145 | 10.0 | 16.0 | 0.00 | 0.00 | 0.00 | 75 | 1009.8 |
| 20260904001912 | 88 | 126 | 10.0 | 16.0 | 0.00 | 0.00 | 0.00 | 75 | 1009.8 |
| 20260904001411 | 88 | 137 | 10.0 | 16.0 | 0.00 | 0.00 | 0.00 | 74 | 1009.8 |
| 20260904000913 | 88 | 139 | 11.0 | 16.0 | 0.00 | 0.00 | 0.00 | 73 | 1009.8 |
| 20260904000421 | 89 | 118 | 11.0 | 17.0 | 0.00 | 0.00 | 0.00 | 73 | 1009.8 |
| 20260903235913 | 89 | 125 | 9.0 | 17.0 | 0.00 | 0.00 | 0.00 | 73 | 1009.8 |
| 20260903235359 | 89 | 105 | 10.0 | 16.0 | 0.00 | 0.00 | 0.00 | 72 | 1009.8 |
| 20260903235111 | 89 | 145 | 9.0 | 16.0 | 0.00 | 0.00 | 0.00 | 72 | 1009.8 |
| 20260903234343 | 89 | 132 | 9.0 | 17.0 | 0.00 | 0.00 | 0.00 | 71 | 1009.8 |
| 20260903234107 | 89 | 116 | 10.0 | 17.0 | 0.00 | 0.00 | 0.00 | 70 | 1009.8 |
| 20260903233330 | 90 | 90 | 10.0 | 17.0 | 0.00 | 0.00 | 0.00 | 70 | 1009.8 |
| 20260903232817 | 90 | 114 | 8.0 | 17.0 | 0.00 | 0.00 | 0.00 | 69 | 1009.8 |
| 20260903232306 | 90 | 90 | 9.0 | 17.0 | 0.00 | 0.00 | 0.00 | 68 | 1009.8 |
| 20260903231801 | 90 | 145 | 9.0 | 17.0 | 0.00 | 0.00 | 0.00 | 67 | 1009.8 |
| 20260903231252 | 91 | 166 | 9.0 | 17.0 | 0.00 | 0.00 | 0.00 | 67 | 1009.6 |
| 20260903230747 | 91 | 102 | 9.0 | 17.0 | 0.00 | 0.00 | 0.00 | 67 | 1009.6 |
| 20260903230234 | 91 | 146 | 9.0 | 17.0 | 0.00 | 0.00 | 0.00 | 68 | 1009.6 |
| 20260903225728 | 91 | 90 | 9.0 | 16.0 | 0.00 | 0.00 | 0.00 | 67 | 1009.4 |
| 20260903225221 | 91 | 90 | 9.0 | 16.0 | 0.00 | 0.00 | 0.00 | 66 | 1009.4 |
| 20260903224722 | 92 | 147 | 9.0 | 16.0 | 0.00 | 0.00 | 0.00 | 64 | 1009.4 |
| 20260903224220 | 92 | 114 | 9.0 | 16.0 | 0.00 | 0.00 | 0.00 | 63 | 1009.4 |
| 20260903223719 | 92 | 150 | 9.0 | 18.0 | 0.00 | 0.00 | 0.00 | 62 | 1009.4 |
| 20260903223442 | 92 | 126 | 9.0 | 18.0 | 0.00 | 0.00 | 0.00 | 62 | 1009.4 |
| 20260903222717 | 92 | 118 | 9.0 | 16.0 | 0.00 | 0.00 | 0.00 | 59 | 1009.7 |
| 20260903222221 | 93 | 90 | 9.0 | 18.0 | 0.00 | 0.00 | 0.00 | 58 | 1009.7 |
| 20260903221950 | 93 | 124 | 10.0 | 18.0 | 0.00 | 0.00 | 0.00 | 57 | 1009.7 |
| 20260903221219 | 93 | 107 | 10.0 | 18.0 | 0.00 | 0.00 | 0.00 | 59 | 1009.5 |
| 20260903220718 | 93 | 134 | 11.0 | 20.0 | 0.00 | 0.00 | 0.00 | 60 | 1009.5 |
| 20260903220447 | 94 | 174 | 11.0 | 20.0 | 0.00 | 0.00 | 0.00 | 61 | 1009.5 |